Regional Weather Roundup
Issued by NWS

Home | Current Version | Previous Version | Text Only | Print | Product List | Glossary On
Versions: 1 2 3 4 5 6 7 8 9 10 11 12 13 14 15 16 17 18 19 20 21 22 23 24 25 26 27 28 29 30 31 32 33 34 35 36 37 38 39 40 41 42 43 44 45 46 47 48 49 50
828
ASUS43 KOAX 251102
RWRNE

WEATHER ROUNDUP FOR NEBRASKA
NATIONAL WEATHER SERVICE OMAHA NE
600 AM CDT TUE APR 25 2017

NOTES: SATELLITE DATA IS BEING USED TO AUGMENT CLOUD COVER ABOVE
       12000 FEET.
       "FAIR" INDICATES FEW OR NO CLOUDS BELOW 12,000 FEET WITH NO
       SIGNIFICANT WEATHER AND/OR OBSTRUCTIONS TO VISIBILITY.

  * THESE STATIONS DO NOT REPORT WEATHER SUCH AS RAIN...SNOW OR FOG.

NEZ001>004-019>022-054>056-251200-
NEBRASKA PANHANDLE

CITY           SKY/WX    TMP DP  RH WIND       PRES   REMARKS
SCOTTSBLUFF    CLOUDY    45  42  89 SE5       29.54R
ALLIANCE       CLOUDY    44  43  96 SE13      29.54S
CHADRON        CLOUDY    41  38  89 NE16      29.55S
KIMBALL        CLOUDY    42  42  99 NW5       29.56R
SIDNEY         LGT RAIN  43  42  97 SE8       29.55F
$$

NEZ057>060-069>072-079>082-251200-
SOUTHWEST NEBRASKA

CITY           SKY/WX    TMP DP  RH WIND       PRES   REMARKS
NORTH PLATTE   RAIN      46  44  93 NW12      29.56R
IMPERIAL       LGT RAIN  46  43  89 NW10      29.57S
LEXINGTON      CLOUDY    45  41  86 NE12G17   29.47F
MCCOOK         CLOUDY    48  44  86 VRB5G17   29.50R
OGALLALA       RAIN      46  45  94 N13       29.57R
$$

NEZ005>010-023>029-035>040-094-251200-
NORTH CENTRAL NEBRASKA

CITY           SKY/WX    TMP DP  RH WIND       PRES   REMARKS
VALENTINE      CLOUDY    36  33  89 N9        29.65R FOG     WCI  29
AINSWORTH      CLOUDY    37  36  99 N17       29.61R WCI  27
BROKEN BOW     RAIN      44  41  89 E10G24    29.50F
O`NEILL        CLOUDY    40  37  88 N17       29.57R WCI  31
ORD            LGT RAIN  44  39  82 NE8       29.54S
THEDFORD       LGT RAIN  40  38  94 N12G20    29.59R WCI  32
$$

NEZ041-046>049-061>064-073>077-083>087-251200-
SOUTH CENTRAL NEBRASKA

CITY           SKY/WX    TMP DP  RH WIND       PRES   REMARKS
GRAND ISLAND   LGT RAIN  45  42  89 NE16      29.50F
AURORA         CLOUDY    45  42  88 N22G28    29.46F
HASTINGS       LGT RAIN  46  41  82 NE16      29.47F
HEBRON         MOCLDY    49  43  80 NE9       29.48R
HOLDREGE       CLOUDY    47  42  84 NE13      29.47F
KEARNEY *      CLOUDY    46  39  76 N10       29.52R
YORK           CLOUDY    45  43  93 NE17      29.48F
$$

NEZ011>018-030>034-042>045-251200-
NORTHEAST NEBRASKA

CITY           SKY/WX    TMP DP  RH WIND       PRES   REMARKS
NORFOLK        CLOUDY    42  36  79 N12       29.56R
ALBION         CLOUDY    45  38  78 NE5       29.56R
BLAIR          CLOUDY    49  42  77 N6G12     29.53F
FREMONT        CLOUDY    47  40  77 NW6       29.55F
TEKAMAH        CLOUDY    47  40  76 NW8       29.56R
WAYNE          CLOUDY    40  39  95 N15G23    29.53F WCI  32
$$

NEZ050>053-065>068-078-088>093-251200-
SOUTHEAST NEBRASKA

CITY           SKY/WX    TMP DP  RH WIND       PRES   REMARKS
LINCOLN        CLOUDY    49  42  77 SE8       29.55F
OMAHA EPPLEY   CLOUDY    51  42  71 N8        29.52R
BEATRICE       CLOUDY    50  45  84 NE15G22   29.44F
FALLS CITY     CLOUDY    54  49  83 CALM      29.47F
NEBRASKA CITY  CLOUDY    52  44  74 N5        29.51S
PLATTSMOUTH    CLOUDY    52  42  70 NW3       29.52S
$$

NEZ044-045-051>053-067-251200-
OMAHA AREA

CITY           SKY/WX    TMP DP  RH WIND       PRES   REMARKS
OMAHA EPPLEY   CLOUDY    51  42  71 N8        29.52R
BLAIR          CLOUDY    49  42  77 N6G12     29.53F
FREMONT        CLOUDY    47  40  77 NW6       29.55F
MILLARD        CLOUDY    53  45  72 NW6       29.53F
OFFUTT AFB     CLOUDY    53  43  70 N9        29.49F
PLATTSMOUTH    CLOUDY    52  42  70 NW3       29.52S
WAHOO          FAIR      47  40  76 N20       29.49F
$$




USA.gov is the U.S. government's official web portal to all federal, state and local government web resources and services.